Regional Weather Roundup
Issued by NWS Raleigh/Durham, NC

Home | Current Version | Previous Version | Text Only | Print | Product List | Glossary On
Versions: 1 2 3 4 5 6 7 8 9 10 11 12 13 14 15 16 17 18 19 20 21 22 23 24 25 26 27
000
ASUS42 KRAH 292110
RWRRAH
NORTH CAROLINA WEATHER ROUNDUP
NATIONAL WEATHER SERVICE RALEIGH NC
500 PM EDT WED MAR 29 2017

NOTE: "FAIR" INDICATES FEW OR NO CLOUDS BELOW 12,000 FEET WITH NO
SIGNIFICANT WEATHER AND/OR OBSTRUCTIONS TO VISIBILITY.

NCZ001-053-055-056-065-067-292200-
WESTERN NORTH CAROLINA

CITY           SKY/WX    TMP DP  RH WIND       PRES   REMARKS
ASHEVILLE      SUNNY     74  46  36 S10       30.04F
JEFFERSON      SUNNY     64  47  53 SE7       30.08R
MORGANTON      SUNNY     77  47  34 E7        30.06S
HICKORY        SUNNY     74  49  41 CALM      30.02S
RUTHERFORDTON  SUNNY     77  49  37 S6G18     30.02F
MOUNT AIRY     SUNNY     74  49  41 CALM      30.05R
BOONE          MOSUNNY   68  45  42 SW8       30.09R
$$

NCZ021-022-025-041-071-084-088-292200-
CENTRAL NORTH CAROLINA

CITY           SKY/WX    TMP DP  RH WIND       PRES   REMARKS
CHARLOTTE      PTSUNNY   78  49  35 CALM      30.02S
GREENSBORO     PTSUNNY   75  51  43 NW6       30.02F
WINSTON-SALEM  SUNNY     72  46  39 SW5       30.04S
RALEIGH-DURHAM PTSUNNY   71  51  49 E6        30.05S
FORT BRAGG     MOSUNNY   73  54  50 NE6       30.02F
FAYETTEVILLE   MOSUNNY   75  55  49 E6        30.02F
BURLINGTON     PTSUNNY   75  51  43 NE8       30.02F
LAURINBURG     MOSUNNY   77  55  46 E10       30.01F
$$

NCZ011-015-027-028-043-044-047-080-103-292200-
NORTHEASTERN NORTH CAROLINA

CITY           SKY/WX    TMP DP  RH WIND       PRES   REMARKS
ROCKY MT-WILSO CLOUDY    70  53  54 CALM      30.05F
GREENVILLE     CLOUDY    68  52  56 NE5       30.08S
WASHINGTON     CLOUDY    66  54  65 E3        30.07R
ELIZABETH CITY SUNNY     60  48  64 NE9       30.09R
MANTEO         MOSUNNY   53  46  75 E13       30.10S
CAPE HATTERAS  SUNNY     58  46  64 NE15G22   30.08R
$$

NCZ078-087-090-091-093-098-101-292200-
SOUTHEASTERN NORTH CAROLINA

CITY           SKY/WX    TMP DP  RH WIND       PRES   REMARKS
LUMBERTON      MOSUNNY   78  55  44 NE9       30.00F
GOLDSBORO      PTSUNNY   69  55  59 NE6       30.04S
KINSTON        PTSUNNY   68  54  60 N7        30.06F
KENANSVILLE    NOT AVBL
NEW BERN       CLOUDY    67  54  63 NE8       30.07R
CHERRY POINT   MOSUNNY   65  51  60 NE13      30.07S
BEAUFORT       SUNNY     66  53  63 NE13G20   30.06S
JACKSONVILLE   CLOUDY    71  56  58 N9        30.04R
WILMINGTON     SUNNY     68  57  68 E10       30.03S
$$





USA.gov is the U.S. government's official web portal to all federal, state and local government web resources and services.